Погода в Байи

Китай     41°47′36″N   81°51′51″E
темп.,
°C
ветер,
м/с
пор.,
м/с
влажн.,
%
обл.,
%
осадки,
мм/ч
давл.,
гПа
погр.,
м
11 апреля, вс
вс1123:00+12ссз34352 0.0 101796
02:00+10сз22323 0.0 101744
05:00+8сз22311 0.0 101716
08:00+7ссз22300 0.0 101711
11:00+12ссз11180 0.0 1017261
14:00+16юз121916 0.0 10151285
17:00+19юз33185 0.0 10132661
20:00+19юз33170 0.0 10122520
12 апреля, пн
пн1223:00+16з33250 0.0 101529
02:00+12сз33290 0.0 101639
05:00+11ссз22300 0.0 101714
08:00+10ссз22310 0.0 101810
11:00+14всв56240 0.0 1020713
14:00+16в65290 0.0 10201494
17:00+17в43250 0.0 10182153
20:00+17в43233 0.0 10182319
13 апреля, вт
вт1323:00+15всв47315 0.0 1021124
02:00+13св2340100 0.0 102331
05:00+12св464499 0.0 1023164
08:00+10св224999 0.0 102431
11:00+12в2236100 0.0 1024546
14:00+13сз4339100 0.0 10231543
17:00+14сз123497 0.0 10201650
20:00+15ю1227100 0.0 10182072
14 апреля, ср
ср1423:00+14зюз1132100 0.0 102011
02:00+13зсз2241100 0.0 102013
05:00+12з114498 0.0 101910
08:00+11сз2237100 0.0 102010
11:00+14з122756 0.0 1021508
14:00+17юз22255 0.0 10182089
17:00+19юз22215 0.0 10162535
20:00+19ююз12201 0.0 10152520
15 апреля, чт
чт1523:00+17юз34265 0.0 101752
02:00+15сз333292 0.0 101730
05:00+13зсз223517 0.0 101613
08:00+12ссз223595 0.0 101613
11:00+15ссв112757 0.0 1016410
14:00+19юз36205 0.0 10142600
17:00+21юз67172 0.0 10112886
20:00+21юз651799 0.0 10102396